GPS BIIR-13 (PRN 02)

Last updated on Tue Jul 01 2025 00:03:13 GMT+0000 (Coordinated Universal Time)

1 28474U 04045A 25181.32972125 -.00000101 00000+0 00000+0 0 9997 2 28474 55.3175 339.0526 0165792 304.1694 72.7861 2.00562109151371
UTC large
Height (km)
Speed (km/s)
/
Latitude / Longitude
Inclination (degrees)
Orbital Period (minutes)
Azimuth
Elevation
Range (km)
Doppler Factor

Next 0 passes for location: London (51.5072 / 0.1276)

Sorry there are no passes over London.